This is the latest recevied weather packets stored in our database for station/object SR9WXJ. If no packets are shown the sender has not sent any weather packets the latest 1 day(s).
| Time | Temp. | Humidity | Pressure | Rain* | Wind** | Luminosity | Snow |
|---|---|---|---|---|---|---|---|
| 1777974533 | 22.78° C | 100% | 789.9 hPa | - | 1.79 m/s, 182° | - | - |
| 1777974233 | 22.78° C | 100% | 789.9 hPa | - | 1.34 m/s, 182° | - | - |
| 1777973912 | 22.78° C | 100% | 789.9 hPa | - | 1.79 m/s, 166° | - | - |
| 1777973302 | 22.78° C | 100% | 789.9 hPa | - | 1.79 m/s, 165° | - | - |
| 1777972991 | 22.78° C | 100% | 789.9 hPa | - | 1.79 m/s, 182° | - | - |
| 1777972370 | 22.22° C | 100% | 789.9 hPa | - | 0.89 m/s, 156° | - | - |
| 1777972070 | 22.22° C | 100% | 790.2 hPa | - | 1.34 m/s, 170° | - | - |
| 1777971759 | 22.78° C | 100% | 790.2 hPa | - | 0.89 m/s, 70° | - | - |
| 1777971448 | 22.22° C | 100% | 790.6 hPa | - | 0.89 m/s, 210° | - | - |
| 1777971138 | 21.67° C | 100% | 790.6 hPa | - | 0.89 m/s, 62° | - | - |
| 1777970827 | 21.67° C | 100% | 790.6 hPa | - | 0.89 m/s, 178° | - | - |
| 1777970217 | 21.67° C | 100% | 791 hPa | - | 1.34 m/s, 159° | - | - |
| 1777969906 | 21.11° C | 100% | 791 hPa | - | 1.79 m/s, 164° | - | - |
| 1777969596 | 21.11° C | 100% | 0 hPa | - | 0.89 m/s, 182° | - | - |
| 1777969285 | 21.11° C | 100% | 0 hPa | - | 0.89 m/s, 208° | - | - |
| 1777969038 | 21.11° C | 100% | 800.9 hPa | - | 0.89 m/s, 168° | - | - |
| 1777968726 | 21.11° C | 100% | 800.9 hPa | - | 1.34 m/s, 197° | - | - |
| 1777968425 | 20.56° C | 100% | 797.9 hPa | - | 0.89 m/s, 206° | - | - |
| 1777968113 | 20.56° C | 100% | 797.9 hPa | - | 0.89 m/s, 187° | - | - |
| 1777967802 | 20° C | 100% | 797.9 hPa | - | 1.34 m/s, 138° | - | - |
| 1777967493 | 20° C | 100% | 797.9 hPa | - | 1.34 m/s, 167° | - | - |
| 1777967191 | 19.44° C | 100% | 797.9 hPa | - | 1.34 m/s, 140° | - | - |
| 1777966879 | 18.89° C | 100% | 797.9 hPa | - | 1.34 m/s, 193° | - | - |
| 1777966569 | 18.33° C | 100% | 797.9 hPa | - | 1.79 m/s, 86° | - | - |
| 1777966257 | 18.33° C | 100% | 797.9 hPa | - | 0.89 m/s, 206° | - | - |
* Rain since midnight (hover to see other rain measurements)
** Current wind speed in m/s (hover to see current wind gust speed)